This is the latest recevied weather packets stored in our database for station/object KD8OZS. If no packets are shown the sender has not sent any weather packets the latest 10 day(s).
| Time | Temp. | Humidity | Pressure | Rain* | Wind** | Luminosity | Snow |
|---|---|---|---|---|---|---|---|
| 1778000949 | 19.44° C | 68% | 1001 hPa | 0 mm | - | 266 W/m² | - |
| 1778000646 | 18.89° C | 70% | 1001 hPa | 0 mm | - | 272 W/m² | - |
| 1778000341 | 19.44° C | 70% | 1001.3 hPa | 0 mm | - | 131 W/m² | - |
| 1778000037 | 19.44° C | 68% | 1001.2 hPa | 0 mm | - | 175 W/m² | - |
| 1777999733 | 20° C | 68% | 1001.2 hPa | 0 mm | - | 191 W/m² | - |
| 1777999429 | 19.44° C | 67% | 1001.1 hPa | 0 mm | - | 265 W/m² | - |
| 1777999128 | 20° C | 68% | 1001.1 hPa | 0 mm | - | 238 W/m² | - |
| 1777998826 | 20° C | 67% | 1001.1 hPa | 0 mm | - | 268 W/m² | - |
| 1777998524 | 20.56° C | 66% | 1001.2 hPa | 0 mm | - | 274 W/m² | - |
| 1777998220 | 20.56° C | 66% | 1001.1 hPa | 0 mm | - | 307 W/m² | - |
| 1777997918 | 20° C | 67% | 1001.1 hPa | 0 mm | - | 307 W/m² | - |
| 1777997614 | 20.56° C | 65% | 1000.9 hPa | 0 mm | - | 256 W/m² | - |
| 1777997312 | 20.56° C | 65% | 1000.9 hPa | 0 mm | - | 327 W/m² | - |
| 1777997010 | 20.56° C | 65% | 1000.6 hPa | 0 mm | - | 332 W/m² | - |
| 1777996706 | 20.56° C | 64% | 1001.2 hPa | 0 mm | - | 331 W/m² | - |
| 1777996401 | 21.11° C | 63% | 1000.7 hPa | 0 mm | - | 271 W/m² | - |
| 1777996098 | 21.11° C | 62% | 1000.9 hPa | 0 mm | - | 310 W/m² | - |
| 1777995795 | 20.56° C | 62% | 1000.6 hPa | 0 mm | - | 324 W/m² | - |
| 1777995491 | 21.67° C | 62% | 1000.4 hPa | 0 mm | - | 265 W/m² | - |
| 1777995189 | 21.11° C | 63% | 1000.1 hPa | 0 mm | - | 289 W/m² | - |
| 1777994885 | 20.56° C | 62% | 999.9 hPa | 0 mm | - | 240 W/m² | - |
| 1777994582 | 20.56° C | 63% | 999.9 hPa | 0 mm | - | 375 W/m² | - |
| 1777994276 | 20.56° C | 65% | 999.8 hPa | 0 mm | - | 216 W/m² | - |
| 1777993974 | 20.56° C | 63% | 999.6 hPa | 0 mm | - | 571 W/m² | - |
| 1777993670 | 20.56° C | 63% | 999.8 hPa | 0 mm | - | 585 W/m² | - |
* Rain latest hour (hover to see other rain measurements)
** Current wind speed in m/s (hover to see current wind gust speed)